Preview of NWS' New Version of Forecast
This preview is not operational and should not be used for support decisions.
Latest weather observations around

Hagerstown, Washington County Regional Airport (KHGR)

Using International System of Units (Switch to English Units)
Date/ Time (EST) Wind (kph) Vis. (km) Weather Sky Cond. Temp (°C) Rel. Humidity Wind Chill (°C) Heat Index (°C) Pressure Precip. (cm)
Air Dwpt 6 hour Altimeter (hPa) Sea level (hPa) 1 hr 3 hr 6 hr
Max Min
Feb 18 16:53   16.09 Cloudy BKN046 OVC055 3 -7     48%     1021 1022.6      
Feb 18 15:53   16.09 Cloudy OVC043 3 -6     50%     1020 1021.4      
Feb 18 14:53   16.09 Cloudy OVC047 4 -5     52%     1018.6 1020.1      
Feb 18 13:53 NW 28 16.09 Cloudy OVC046 4 -4     53% -1   1017.3 1018.6      
Feb 18 12:53 W 26 16.09 Cloudy OVC048 5 -4     51% 0   1016.6 1018.1      
Feb 18 11:53 W 18 16.09 Cloudy OVC045 4 -4     55% 1   1016.3 1017.9      
Feb 18 10:53 W 30 16.09 Cloudy BKN038 OVC048 4 -3     57% -1   1014.9 1016.5      
Feb 18 09:53   16.09 Cloudy OVC040 5 -2     60%     1013.2 1014.8      
Feb 18 08:53 W 17 16.09 Cloudy OVC033 5 -1     67% 2   1012.5 1014      
Feb 18 08:00 W 17 16.09 Cloudy OVC039 4 0     73% 1   1011.2        
Feb 18 07:53 W 13 16.09 Mostly Cloudy BKN040 4 0     73% 1   1010.8 1012.3      
Feb 18 06:53 W 13 16.09 Mostly Cloudy BKN039 3 0     79% 0   1009.2 1010.7      
Feb 18 06:07 Calm 6.44 Fog/Mist BKN034 2 0     88%     1009.2        
Feb 18 06:00 ESE 5 4.02 Fog/Mist SCT036 2 0     88% 0   1009.2        
Feb 18 05:53 E 8 4.83 Fog/Mist SCT041 2 0     88% -1   1009.2 1010.6      
Feb 18 05:18 NNE 5 4.83 Fog/Mist SCT003 OVC039 2 0     88% 0   1008.8        
Feb 18 05:02 NNW 8 4.02 Fog/Mist OVC003 2 0     88% -1   1008.8        
Feb 18 04:53 NW 9 2.41 Fog/Mist OVC003 2 0     88% -1   1008.8 1010.2      
Feb 18 04:51 NW 9 2.41 Fog/Mist OVC003 2 0     87% -1   1008.8        
Feb 18 04:18 Calm 4.02 Clear   2 0     88%     1007.8        
Feb 18 03:53 Calm 2.41 Clear   2 0     88%     1008.1 1009.8      
Feb 18 03:44 Calm 2.41 Fog/Mist OVC003 1 0     92%     1008.1        
Feb 18 03:06 WNW 8 1.21 Fog/Mist OVC004 2 0     88% -1   1008.1        
Feb 18 03:02 WNW 8 2.82 Fog/Mist OVC005 2 0     88% -1   1007.5        
Feb 18 02:53 Calm 9.66 Fog/Mist OVC005 2 1     89%     1007.8 1009.3      
Feb 18 01:53 S 13 6.44 Fog/Mist OVC005 2 0     85% -1   1008.5 1010.1      
Feb 18 00:53 S 18 9.66 Fog/Mist OVC006 2 0     88% -3   1009.2 1010.6     0
Feb 17 23:53 SSE 9 11.27 Cloudy OVC007 1 -1     85% -2   1009.8 1011.4      
Feb 17 22:53 SE 13 16.09 Cloudy OVC009 1 -2     82% -3   1010.2 1011.8 0    
Feb 17 22:40 SSE 17 16.09 Cloudy OVC009 1 -1     85% -3   1011.2   0    
Feb 17 22:03 SSE 17 14.48 Light Rain BKN012 OVC023 1 -2     82% -3   1011.2   0    
Feb 17 21:53 SE 9 16.09 Light Rain BKN015 OVC024 1 -2     82% -2   1011.2 1013 0 0  
Feb 17 20:53 SSE 17 16.09 Cloudy BKN022 OVC038 1 -2     82% -4   1011.2 1013 0    
Feb 17 19:53 SSE 18 16.09 Cloudy BKN028 OVC034 2 -3     69% -3   1012.5 1014.3 0    
Feb 17 19:50 SSE 17 16.09 Cloudy BKN028 OVC034 2 -3     69% -2   1012.9   0    
Feb 17 18:53 SSE 13 16.09 Cloudy BKN035 OVC075 2 -3     69% -2   1012.5 1014.4     0
Feb 17 17:53 SE 13 16.09 Mostly Cloudy SCT065 BKN100 2 -3     69% -2   1012.5 1014.3 0    
Feb 17 16:53 ESE 9 16.09 Cloudy OVC047 2 -4     64% -1   1014.9 1016.7 0    
Feb 17 15:53 SSE 18 16.09 Cloudy OVC040 2 -7     54% -3   1014.9 1016.4      
Feb 17 14:53 SSE 17 16.09 Cloudy OVC039 2 -7     52% -3   1015.2 1016.9      
Feb 17 13:53 SSE 18 16.09 Cloudy OVC042 1 -8     51% -4   1016.3 1017.9      
Feb 17 12:53 SE 15 16.09 Cloudy OVC046 1 -8     51% -3   1018 1019.7      
Feb 17 11:53 Calm 16.09 Cloudy OVC044 1 -7     54%     1019 1020.8      
Feb 17 10:53 SSW 8 16.09 Cloudy OVC048 1 -7     56% -2   1020 1021.6      
Feb 17 09:53 ENE 9 16.09 Clear CLR 0 -7     58% -3   1018.3 1020      
Feb 17 08:53 E 5 16.09 Clear CLR -1 -7     63% -3   1019 1020.9      
Feb 17 07:53 NNE 8 16.09 Clear CLR -3 -8     68% -6   1019 1020.5      
Feb 17 06:53 N 9 16.09 Clear CLR -4 -9     71% -8   1019 1020.7      
Feb 17 05:53 NNW 8 16.09 Clear CLR -4 -8     74% -8   1018.6 1020.3      
Feb 17 04:53 N 8 16.09 Clear CLR -4 -8     71% -7   1017.6 1019.2      
Feb 17 03:53 NNE 5 16.09 Clear CLR -3 -9     63% -5   1017.3 1018.8      
Feb 17 02:53 NNE 5 16.09 Clear CLR -2 -8     63% -4   1018 1019.6      
Feb 17 01:53 NNE 9 16.09 Clear CLR -2 -8     61% -5   1017.6 1019.4      
Feb 17 00:53 Calm 16.09 Clear   -2 -8     65%     1018.3 1019.8      
Feb 16 23:53 Calm 16.09 Clear CLR -2 -8     63%     1017.6 1019.3      
Feb 16 22:53 NNW 9 16.09 Clear CLR -1 -8     60% -4   1018 1019.4      
Feb 16 21:53 NNW 11 16.09 Clear CLR -1 -7     63% -5   1017.3 1018.8      
Feb 16 20:53 NW 11 16.09 Clear CLR -1 -7     63% -5   1016.3 1018.1      
Feb 16 19:53 N 9 16.09 Clear CLR 1 -8     51% -2   1015.2 1016.9      
Feb 16 18:53 N 15 16.09 Clear CLR 2 -8     49% -2   1014.9 1016.6      
Feb 16 17:53 N 18 16.09 Clear CLR 3 -8     44% -1   1014.2 1015.7      
Feb 16 16:53 N 17 16.09 Clear CLR 5 -8     38% 2   1013.2 1014.8      
Feb 16 15:53 NNW 22 16.09 Clear CLR 5 -8     39% 1   1013.6 1014.9      
Feb 16 14:53 N 17 16.09 Clear CLR 5 -8     39% 2   1013.2 1014.5      
Feb 16 13:53 N 18 16.09 Clear CLR 4 -8     41% 1   1012.9 1014.2      
Feb 16 12:53 NNE 15 16.09 Clear CLR 4 -7     44% 0   1013.2 1014.6      
Feb 16 11:53 NNW 15 16.09 Clear CLR 4 -7     44% 0   1013.6 1015.1      
Feb 16 10:53 NNW 17 16.09 Mostly Clear FEW035 3 -8     46% -1   1014.2 1015.5      
Feb 16 09:53   16.09 Clear CLR 2 -8     49%     1013.9 1015.1      
Feb 16 08:53 NNW 18 16.09 Clear CLR 1 -8     51% -4   1013.9 1015.4      
Feb 16 07:53 NNW 13 16.09 Clear CLR -1 -8     60% -5   1013.2 1014.5      
Feb 16 06:53 NNW 26 16.09 Clear CLR -1 -8     58% -7   1012.2 1013.5      
Feb 16 05:53 NNW 22 16.09 Clear CLR 0 -8     54% -6   1011.9 1013.2      
Feb 16 04:53 NNW 13 16.09 Clear CLR 1 -8     50% -3   1011.9 1013.1      
Feb 16 03:53 NW 15 16.09 Partly Cloudy SCT120 2 -8     46% -2   1011.2 1012.4      
Feb 16 02:53 WNW 17 16.09 Clear CLR 3 -8     44% -1   1011.2 1012.3      
Feb 16 01:53 NNW 17 16.09 Mostly Clear FEW090 3 -8     44% -1   1010.8 1012      
Feb 16 00:53 NW 15 16.09 Clear CLR 4 -8     42% 0   1010.5 1011.7      
Feb 15 23:53 NW 17 16.09 Clear CLR 4 -6     48% 0   1010.5 1011.5      
Feb 15 22:53 WNW 11 16.09 Clear CLR 6 -8     36% 3   1009.8 1011      
Feb 15 21:53 WNW 13 16.09 Clear CLR 7 -8     35% 4   1008.8 1010      
Feb 15 20:53 WNW 15 16.09 Clear CLR 7 -7     37% 5   1007.8 1009      
Feb 15 19:53 WNW 22 16.09 Clear CLR 10 -3     41%     1006.8 1008      
Feb 15 18:53   16.09 Clear CLR 12 1     48%     1005.4 1006.4     0
May 15 02:07 S 11 16.09 Cloudy BKN055 OVC065 19 17     90%     1014.6        
May 14 18:53 SSW 11 8.05 Light Rain and Fog/Mist FEW090 OVC110 22 20     87%   23 1014.2 1014.7 0    
May 13 23:01 Calm 8.05 Light Rain and Fog/Mist SCT007 BKN019 OVC110 16 15     96%     1016.9   0    
May 13 03:46 NNE 8 3.22 Rain and Fog/Mist SCT008 BKN029 OVC049 17 17     97%     1018.3   1    
May 13 03:18 NW 13 3.22 Thunderstorms and Rain and Fog/Mist FEW007 BKN031 OVC042 17 17     97%     1018.6   1    
May 12 18:53 N 24 8.05 Light Rain FEW075 BKN090 OVC120 22 17     76%   22   1016.6 0    
May 12 15:53 S 15 16.09 Clear CLR 30 17     46%   30 1013.6 1014.1      
May 12 08:53 NW 5 16.09 Clear CLR 15 11     78%     1019.3 1019.9      
May 12 03:53 NNW 21 16.09 Clear   15 8     64%     1017.3 1018      
May 12 00:53 NW 9 16.09 Mostly Clear FEW075 16 11     70%     1017.6 1018.2      
Jun 11 15:53 W 21 16.09 Clear CLR 33 16     36%   33 1019 1019.2      
Jun 11 12:53 WSW 21 16.09 Clear CLR 31 17     42%   31 1020 1020.2      
Jun 11 03:53 S 11 16.09 Clear CLR 21 16     71%     1018.6 1018.7      
Jun 08 13:53 NE 11 16.09 Mostly Cloudy BKN060 23 8     37%   23 1013.9 1014.7